Location: Berg
(47.2344°N, 9.5296°E)
Time: 22:00:48
(UTC+00:00)

Meteor 2-8 Rocket - Pass Details

Date: 24 January 2021
Orbit: 937 x 957 km, 82.5° (Epoch: 04 March)

Event Time Altitude Azimuth Distance (km) Brightness Sun altitude
Rises 17:37:02 0° 353° (N) 3,617 7.4 -14.3°
Reaches altitude 10° 17:39:34 10° 357° (N) 2,671 6.7 -14.8°
Maximum altitude 17:45:36 61° 77° (ENE) 1,066 4.4 -15.8°
Drops below altitude 10° 17:51:38 10° 158° (SSE) 2,666 6.7 -16.8°
Sets 17:54:10 0° 162° (SSE) 3,610 7.4 -17.2°
